Time,TemperatureF,DewpointF,PressureIn,WindDirection,WindDirectionDegrees,WindSpeedMPH,WindSpeedGustMPH,Humidity,HourlyPrecipIn,Conditions,Clouds,dailyrainin,SoftwareType,DateUTC
2013-02-10 00:01:00,40.0,35.0,-100.00,NNW,347,2.0,5.0,83,-99.99,,,-99.99,,2013-02-10 08:01:00,
2013-02-10 00:11:00,40.0,35.0,-100.00,NNW,340,2.0,4.0,83,-99.99,,,-99.99,,2013-02-10 08:11:00,
2013-02-10 00:21:00,40.0,35.0,-100.00,NNW,345,1.0,4.0,83,-99.99,,,-99.99,,2013-02-10 08:21:00,
2013-02-10 00:31:00,40.0,36.0,-100.00,NNW,348,2.0,5.0,84,-99.99,,,-99.99,,2013-02-10 08:31:00,
2013-02-10 00:43:00,40.0,35.0,-100.00,NNW,339,3.0,6.0,83,-99.99,,,-99.99,,2013-02-10 08:43:00,
2013-02-10 00:52:00,40.0,35.0,-100.00,NNW,334,3.0,7.0,82,-99.99,,,-99.99,,2013-02-10 08:52:00,
2013-02-10 01:01:00,40.0,35.0,-100.00,NNE,14,2.0,4.0,83,-99.99,,,-99.99,,2013-02-10 09:01:00,
2013-02-10 01:11:00,40.0,35.0,-100.00,NNW,347,2.0,5.0,83,-99.99,,,-99.99,,2013-02-10 09:11:00,
2013-02-10 01:21:00,40.0,35.0,-100.00,NNW,335,3.0,6.0,82,-99.99,,,-99.99,,2013-02-10 09:21:00,
2013-02-10 01:31:00,40.0,35.0,-100.00,North,5,2.0,4.0,82,-99.99,,,-99.99,,2013-02-10 09:31:00,
2013-02-10 01:41:00,40.0,35.0,-100.00,North,4,2.0,4.0,83,-99.99,,,-99.99,,2013-02-10 09:41:00,
2013-02-10 01:51:00,40.0,35.0,-100.00,NNW,342,2.0,5.0,82,-99.99,,,-99.99,,2013-02-10 09:51:00,
2013-02-10 02:01:00,40.0,35.0,-100.00,North,355,2.0,6.0,83,-99.99,,,-99.99,,2013-02-10 10:01:00,
2013-02-10 02:11:00,40.0,35.0,-100.00,NNW,333,2.0,5.0,83,-99.99,,,-99.99,,2013-02-10 10:11:00,
2013-02-10 02:21:00,40.0,35.0,-100.00,NNW,334,2.0,5.0,82,-99.99,,,-99.99,,2013-02-10 10:21:00,
2013-02-10 02:31:00,40.0,35.0,-100.00,NNW,332,3.0,6.0,82,-99.99,,,-99.99,,2013-02-10 10:31:00,
2013-02-10 02:41:00,40.0,35.0,-100.00,North,350,2.0,5.0,81,-99.99,,,-99.99,,2013-02-10 10:41:00,
2013-02-10 02:51:00,40.0,34.0,-100.00,North,353,2.0,5.0,80,-99.99,,,-99.99,,2013-02-10 10:51:00,
2013-02-10 03:01:00,39.0,33.0,-100.00,North,349,2.0,5.0,80,-99.99,,,-99.99,,2013-02-10 11:01:00,
2013-02-10 03:11:00,39.0,33.0,-100.00,North,357,1.0,4.0,80,-99.99,,,-99.99,,2013-02-10 11:11:00,
2013-02-10 03:21:00,39.0,33.0,-100.00,NNW,347,1.0,3.0,80,-99.99,,,-99.99,,2013-02-10 11:21:00,
2013-02-10 03:31:00,39.0,33.0,-100.00,North,1,1.0,4.0,80,-99.99,,,-99.99,,2013-02-10 11:31:00,
2013-02-10 03:42:00,39.0,33.0,-100.00,North,354,1.0,3.0,80,-99.99,,,-99.99,,2013-02-10 11:42:00,
2013-02-10 03:52:00,39.0,33.0,-100.00,North,352,1.0,5.0,80,-99.99,,,-99.99,,2013-02-10 11:52:00,
2013-02-10 04:01:00,39.0,33.0,-100.00,NNW,342,2.0,5.0,79,-99.99,,,-99.99,,2013-02-10 12:01:00,
2013-02-10 04:12:00,39.0,33.0,-100.00,NNW,342,2.0,5.0,78,-99.99,,,-99.99,,2013-02-10 12:12:00,
2013-02-10 04:21:00,39.0,33.0,-100.00,NNW,342,2.0,5.0,78,-99.99,,,-99.99,,2013-02-10 12:21:00,
2013-02-10 04:32:00,39.0,33.0,-100.00,NNW,341,2.0,6.0,78,-99.99,,,-99.99,,2013-02-10 12:32:00,
2013-02-10 04:41:00,39.0,33.0,-100.00,NNW,345,2.0,5.0,78,-99.99,,,-99.99,,2013-02-10 12:41:00,
2013-02-10 04:52:00,39.0,33.0,-100.00,NNW,342,1.0,4.0,78,-99.99,,,-99.99,,2013-02-10 12:52:00,
2013-02-10 05:02:00,39.0,33.0,-100.00,NNW,347,2.0,4.0,78,-99.99,,,-99.99,,2013-02-10 13:02:00,
2013-02-10 05:11:00,39.0,33.0,-100.00,NNW,340,2.0,4.0,78,-99.99,,,-99.99,,2013-02-10 13:11:00,
2013-02-10 05:21:00,39.0,32.0,-100.00,North,355,1.0,4.0,77,-99.99,,,-99.99,,2013-02-10 13:21:00,
2013-02-10 05:31:00,39.0,33.0,-100.00,North,2,1.0,3.0,78,-99.99,,,-99.99,,2013-02-10 13:31:00,
2013-02-10 05:41:00,39.0,33.0,-100.00,North,2,1.0,3.0,78,-99.99,,,-99.99,,2013-02-10 13:41:00,
2013-02-10 05:51:00,38.0,32.0,-100.00,North,7,2.0,4.0,79,-99.99,,,-99.99,,2013-02-10 13:51:00,
2013-02-10 06:01:00,39.0,33.0,-100.00,NNW,346,2.0,6.0,79,-99.99,,,-99.99,,2013-02-10 14:01:00,
2013-02-10 06:11:00,39.0,33.0,-100.00,NW,315,2.0,6.0,78,-99.99,,,-99.99,,2013-02-10 14:11:00,
2013-02-10 06:21:00,39.0,33.0,-100.00,NNW,327,2.0,5.0,78,-99.99,,,-99.99,,2013-02-10 14:21:00,
2013-02-10 06:31:00,39.0,33.0,-100.00,NNW,327,2.0,5.0,78,-99.99,,,-99.99,,2013-02-10 14:31:00,
2013-02-10 06:41:00,39.0,33.0,-100.00,NNW,327,2.0,5.0,78,-99.99,,,-99.99,,2013-02-10 14:41:00,
2013-02-10 06:52:00,39.0,33.0,-100.00,North,10,1.0,4.0,79,-99.99,,,-99.99,,2013-02-10 14:52:00,
2013-02-10 07:01:00,39.0,34.0,-100.00,North,7,1.0,3.0,81,-99.99,,,-99.99,,2013-02-10 15:01:00,
2013-02-10 07:11:00,39.0,34.0,-100.00,North,7,1.0,3.0,81,-99.99,,,-99.99,,2013-02-10 15:11:00,
2013-02-10 07:21:00,39.0,34.0,-100.00,North,9,1.0,4.0,81,-99.99,,,-99.99,,2013-02-10 15:21:00,
2013-02-10 07:31:00,39.0,34.0,-100.00,North,0,2.0,5.0,81,-99.99,,,-99.99,,2013-02-10 15:31:00,
2013-02-10 07:41:00,39.0,34.0,-100.00,North,359,2.0,4.0,81,-99.99,,,-99.99,,2013-02-10 15:41:00,
2013-02-10 07:51:00,40.0,34.0,-100.00,NNW,336,2.0,5.0,79,-99.99,,,-99.99,,2013-02-10 15:51:00,
2013-02-10 08:01:00,41.0,35.0,-100.00,NNW,332,1.0,5.0,78,-99.99,,,-99.99,,2013-02-10 16:01:00,
2013-02-10 08:11:00,42.0,35.0,-100.00,NW,318,1.0,3.0,76,-99.99,,,-99.99,,2013-02-10 16:11:00,
2013-02-10 08:21:00,43.0,35.0,-100.00,NNW,347,1.0,5.0,73,-99.99,,,-99.99,,2013-02-10 16:21:00,
2013-02-10 08:31:00,44.0,35.0,-100.00,North,2,1.0,3.0,71,-99.99,,,-99.99,,2013-02-10 16:31:00,
2013-02-10 08:42:00,46.0,36.0,-100.00,NW,312,1.0,3.0,69,-99.99,,,-99.99,,2013-02-10 16:42:00,
2013-02-10 08:51:00,47.0,36.0,-100.00,ENE,75,1.0,3.0,66,-99.99,,,-99.99,,2013-02-10 16:51:00,
2013-02-10 09:01:00,48.0,37.0,-100.00,ESE,102,1.0,3.0,66,-99.99,,,-99.99,,2013-02-10 17:01:00,
2013-02-10 09:11:00,47.0,36.0,-100.00,NNW,335,1.0,2.0,66,-99.99,,,-99.99,,2013-02-10 17:11:00,
2013-02-10 09:21:00,48.0,37.0,-100.00,NNW,340,1.0,2.0,66,-99.99,,,-99.99,,2013-02-10 17:21:00,
2013-02-10 09:31:00,49.0,37.0,-100.00,NW,311,1.0,4.0,64,-99.99,,,-99.99,,2013-02-10 17:31:00,
2013-02-10 09:42:00,50.0,38.0,-100.00,WNW,293,1.0,3.0,63,-99.99,,,-99.99,,2013-02-10 17:42:00,
2013-02-10 09:52:00,51.0,38.0,-100.00,SE,138,1.0,2.0,62,-99.99,,,-99.99,,2013-02-10 17:52:00,
2013-02-10 10:01:00,53.0,40.0,-100.00,SE,137,1.0,3.0,61,-99.99,,,-99.99,,2013-02-10 18:01:00,
2013-02-10 10:11:00,53.0,38.0,-100.00,SSE,149,2.0,5.0,57,-99.99,,,-99.99,,2013-02-10 18:11:00,
2013-02-10 10:21:00,53.0,39.0,-100.00,SSE,153,2.0,6.0,58,-99.99,,,-99.99,,2013-02-10 18:21:00,
2013-02-10 10:31:00,54.0,39.0,-100.00,South,177,1.0,5.0,56,-99.99,,,-99.99,,2013-02-10 18:31:00,
2013-02-10 10:41:00,52.0,39.0,-100.00,SSW,206,1.0,4.0,60,-99.99,,,-99.99,,2013-02-10 18:41:00,
2013-02-10 10:52:00,51.0,38.0,-100.00,WSW,238,2.0,5.0,60,-99.99,,,-99.99,,2013-02-10 18:52:00,
2013-02-10 11:01:00,52.0,39.0,-100.00,SSW,192,1.0,3.0,61,-99.99,,,-99.99,,2013-02-10 19:01:00,
2013-02-10 11:11:00,52.0,39.0,-100.00,SSE,160,1.0,4.0,60,-99.99,,,-99.99,,2013-02-10 19:11:00,
2013-02-10 11:21:00,52.0,39.0,-100.00,SE,125,1.0,6.0,61,-99.99,,,-99.99,,2013-02-10 19:21:00,
2013-02-10 11:31:00,52.0,39.0,-100.00,SE,135,1.0,4.0,60,-99.99,,,-99.99,,2013-02-10 19:31:00,
2013-02-10 11:42:00,53.0,39.0,-100.00,SSE,156,1.0,4.0,58,-99.99,,,-99.99,,2013-02-10 19:42:00,
2013-02-10 11:51:00,52.0,38.0,-100.00,SSE,168,1.0,4.0,58,-99.99,,,-99.99,,2013-02-10 19:51:00,
2013-02-10 12:01:00,52.0,38.0,-100.00,SSE,158,1.0,4.0,58,-99.99,,,-99.99,,2013-02-10 20:01:00,
2013-02-10 12:11:00,52.0,38.0,-100.00,South,177,1.0,3.0,58,-99.99,,,-99.99,,2013-02-10 20:11:00,
2013-02-10 12:21:00,52.0,38.0,-100.00,West,267,1.0,2.0,59,-99.99,,,-99.99,,2013-02-10 20:21:00,
2013-02-10 12:31:00,52.0,38.0,-100.00,East,86,1.0,4.0,58,-99.99,,,-99.99,,2013-02-10 20:31:00,
2013-02-10 12:42:00,53.0,39.0,-100.00,NNW,327,1.0,3.0,58,-99.99,,,-99.99,,2013-02-10 20:42:00,
2013-02-10 12:52:00,53.0,38.0,-100.00,WSW,241,1.0,4.0,56,-99.99,,,-99.99,,2013-02-10 20:52:00,
2013-02-10 13:02:00,53.0,38.0,-100.00,South,187,1.0,4.0,56,-99.99,,,-99.99,,2013-02-10 21:02:00,
2013-02-10 13:11:00,53.0,38.0,-100.00,SSE,165,1.0,4.0,56,-99.99,,,-99.99,,2013-02-10 21:11:00,
2013-02-10 13:21:00,53.0,37.0,-100.00,SSW,203,1.0,3.0,55,-99.99,,,-99.99,,2013-02-10 21:21:00,
2013-02-10 13:32:00,54.0,38.0,-100.00,SSE,168,1.0,4.0,55,-99.99,,,-99.99,,2013-02-10 21:32:00,
2013-02-10 13:42:00,54.0,38.0,-100.00,South,179,1.0,2.0,55,-99.99,,,-99.99,,2013-02-10 21:42:00,
2013-02-10 13:51:00,53.0,37.0,-100.00,SW,214,1.0,4.0,55,-99.99,,,-99.99,,2013-02-10 21:51:00,
2013-02-10 14:01:00,53.0,37.0,-100.00,South,171,1.0,6.0,55,-99.99,,,-99.99,,2013-02-10 22:01:00,
2013-02-10 14:11:00,53.0,38.0,-100.00,SSW,210,3.0,8.0,56,-99.99,,,-99.99,,2013-02-10 22:11:00,
2013-02-10 14:21:00,53.0,40.0,-100.00,SSW,205,3.0,8.0,61,-99.99,,,-99.99,,2013-02-10 22:21:00,
2013-02-10 14:31:00,52.0,41.0,-100.00,SW,218,4.0,9.0,65,-99.99,,,-99.99,,2013-02-10 22:31:00,
2013-02-10 14:42:00,52.0,40.0,-100.00,SW,215,3.0,6.0,64,-99.99,,,-99.99,,2013-02-10 22:42:00,
2013-02-10 14:52:00,53.0,41.0,-100.00,South,188,2.0,8.0,64,-99.99,,,-99.99,,2013-02-10 22:52:00,
2013-02-10 15:01:00,53.0,41.0,-100.00,SSW,210,2.0,5.0,63,-99.99,,,-99.99,,2013-02-10 23:01:00,
2013-02-10 15:11:00,53.0,41.0,-100.00,SSW,192,2.0,5.0,63,-99.99,,,-99.99,,2013-02-10 23:11:00,
2013-02-10 15:21:00,53.0,40.0,-100.00,South,185,1.0,4.0,61,-99.99,,,-99.99,,2013-02-10 23:21:00,
2013-02-10 15:31:00,53.0,41.0,-100.00,SE,141,1.0,4.0,63,-99.99,,,-99.99,,2013-02-10 23:31:00,
2013-02-10 15:41:00,53.0,40.0,-100.00,SSE,150,1.0,6.0,62,-99.99,,,-99.99,,2013-02-10 23:41:00,
2013-02-10 15:52:00,53.0,41.0,-100.00,SSE,165,1.0,4.0,63,-99.99,,,-99.99,,2013-02-10 23:52:00,
2013-02-10 16:01:00,52.0,42.0,-100.00,ESE,116,2.0,5.0,68,-99.99,,,-99.99,,2013-02-11 00:01:00,
2013-02-10 16:11:00,52.0,42.0,-100.00,ESE,116,2.0,5.0,68,-99.99,,,-99.99,,2013-02-11 00:11:00,
2013-02-10 16:21:00,52.0,43.0,-100.00,SSE,155,1.0,3.0,71,-99.99,,,-99.99,,2013-02-11 00:21:00,
2013-02-10 16:31:00,51.0,43.0,-100.00,SSE,147,2.0,8.0,75,-99.99,,,-99.99,,2013-02-11 00:31:00,
2013-02-10 16:41:00,49.0,42.0,-100.00,NE,51,2.0,7.0,78,-99.99,,,-99.99,,2013-02-11 00:41:00,
2013-02-10 16:51:00,48.0,42.0,-100.00,ENE,64,2.0,6.0,81,-99.99,,,-99.99,,2013-02-11 00:51:00,
2013-02-10 17:01:00,48.0,43.0,-100.00,ESE,105,2.0,5.0,82,-99.99,,,-99.99,,2013-02-11 01:01:00,
2013-02-10 17:11:00,47.0,43.0,-100.00,SE,130,1.0,5.0,85,-99.99,,,-99.99,,2013-02-11 01:11:00,
2013-02-10 17:21:00,47.0,44.0,-100.00,SSW,199,0.0,1.0,88,-99.99,,,-99.99,,2013-02-11 01:21:00,
2013-02-10 17:31:00,48.0,45.0,-100.00,West,262,1.0,3.0,90,-99.99,,,-99.99,,2013-02-11 01:31:00,
2013-02-10 17:41:00,48.0,45.0,-100.00,West,262,1.0,3.0,90,-99.99,,,-99.99,,2013-02-11 01:41:00,
2013-02-10 17:52:00,47.0,44.0,-100.00,NNE,30,1.0,2.0,89,-99.99,,,-99.99,,2013-02-11 01:52:00,
2013-02-10 18:01:00,47.0,44.0,-100.00,NE,41,1.0,2.0,88,-99.99,,,-99.99,,2013-02-11 02:01:00,
2013-02-10 18:11:00,46.0,43.0,-100.00,NNE,29,1.0,3.0,90,-99.99,,,-99.99,,2013-02-11 02:11:00,
2013-02-10 18:21:00,46.0,44.0,-100.00,NNE,20,1.0,2.0,91,-99.99,,,-99.99,,2013-02-11 02:21:00,
2013-02-10 18:31:00,46.0,44.0,-100.00,NW,317,1.0,2.0,92,-99.99,,,-99.99,,2013-02-11 02:31:00,
2013-02-10 18:41:00,46.0,44.0,-100.00,North,357,1.0,1.0,93,-99.99,,,-99.99,,2013-02-11 02:41:00,
2013-02-10 18:52:00,46.0,44.0,-100.00,North,5,1.0,2.0,93,-99.99,,,-99.99,,2013-02-11 02:52:00,
2013-02-10 19:01:00,46.0,44.0,-100.00,North,5,1.0,2.0,93,-99.99,,,-99.99,,2013-02-11 03:01:00,
2013-02-10 19:11:00,46.0,44.0,-100.00,North,5,1.0,2.0,93,-99.99,,,-99.99,,2013-02-11 03:11:00,
2013-02-10 19:21:00,46.0,44.0,-100.00,North,5,1.0,2.0,93,-99.99,,,-99.99,,2013-02-11 03:21:00,
2013-02-10 19:31:00,45.0,43.0,-100.00,NNE,14,1.0,1.0,94,-99.99,,,-99.99,,2013-02-11 03:31:00,
2013-02-10 19:41:00,45.0,43.0,-100.00,NNW,336,1.0,1.0,94,-99.99,,,-99.99,,2013-02-11 03:41:00,
2013-02-10 19:52:00,45.0,44.0,-100.00,NNW,341,1.0,2.0,95,-99.99,,,-99.99,,2013-02-11 03:52:00,
2013-02-10 20:01:00,45.0,44.0,-100.00,NNW,341,1.0,2.0,95,-99.99,,,-99.99,,2013-02-11 04:01:00,
2013-02-10 20:11:00,45.0,44.0,-100.00,NW,317,0.0,1.0,95,-99.99,,,-99.99,,2013-02-11 04:11:00,
2013-02-10 20:21:00,45.0,44.0,-100.00,North,7,1.0,2.0,96,-99.99,,,-99.99,,2013-02-11 04:21:00,
2013-02-10 20:31:00,44.0,43.0,-100.00,NNW,347,1.0,4.0,95,-99.99,,,-99.99,,2013-02-11 04:31:00,
2013-02-10 20:41:00,44.0,43.0,-100.00,NNE,17,1.0,1.0,95,-99.99,,,-99.99,,2013-02-11 04:41:00,
2013-02-10 20:51:00,44.0,43.0,-100.00,North,11,0.0,1.0,95,-99.99,,,-99.99,,2013-02-11 04:51:00,
2013-02-10 21:01:00,44.0,43.0,-100.00,North,11,0.0,1.0,95,-99.99,,,-99.99,,2013-02-11 05:01:00,
2013-02-10 21:11:00,43.0,42.0,-100.00,NNE,20,1.0,2.0,95,-99.99,,,-99.99,,2013-02-11 05:11:00,
2013-02-10 21:22:00,43.0,42.0,-100.00,NNW,329,2.0,5.0,95,-99.99,,,-99.99,,2013-02-11 05:22:00,
2013-02-10 21:31:00,43.0,41.0,-100.00,NNW,344,2.0,4.0,94,-99.99,,,-99.99,,2013-02-11 05:31:00,
2013-02-10 21:41:00,43.0,41.0,-100.00,North,350,2.0,5.0,93,-99.99,,,-99.99,,2013-02-11 05:41:00,
2013-02-10 21:52:00,43.0,41.0,-100.00,NNW,336,1.0,4.0,93,-99.99,,,-99.99,,2013-02-11 05:52:00,
2013-02-10 22:01:00,43.0,41.0,-100.00,NW,323,1.0,5.0,93,-99.99,,,-99.99,,2013-02-11 06:01:00,
2013-02-10 22:11:00,42.0,40.0,-100.00,NNW,343,1.0,3.0,93,-99.99,,,-99.99,,2013-02-11 06:11:00,
2013-02-10 22:21:00,42.0,40.0,-100.00,NNW,332,2.0,4.0,93,-99.99,,,-99.99,,2013-02-11 06:21:00,
2013-02-10 22:31:00,42.0,40.0,-100.00,NNW,332,2.0,4.0,93,-99.99,,,-99.99,,2013-02-11 06:31:00,
2013-02-10 22:41:00,42.0,40.0,-100.00,North,351,1.0,3.0,92,-99.99,,,-99.99,,2013-02-11 06:41:00,
2013-02-10 22:51:00,42.0,40.0,-100.00,North,1,1.0,4.0,92,-99.99,,,-99.99,,2013-02-11 06:51:00,
2013-02-10 23:01:00,41.0,39.0,-100.00,NNW,343,2.0,4.0,92,-99.99,,,-99.99,,2013-02-11 07:01:00,
2013-02-10 23:11:00,41.0,39.0,-100.00,North,0,1.0,3.0,92,-99.99,,,-99.99,,2013-02-11 07:11:00,
2013-02-10 23:21:00,42.0,40.0,-100.00,North,6,2.0,4.0,91,-99.99,,,-99.99,,2013-02-11 07:21:00,
2013-02-10 23:31:00,41.0,39.0,-100.00,NNE,31,1.0,2.0,91,-99.99,,,-99.99,,2013-02-11 07:31:00,
2013-02-10 23:41:00,41.0,39.0,-100.00,NNE,21,1.0,4.0,92,-99.99,,,-99.99,,2013-02-11 07:41:00,
2013-02-10 23:51:00,41.0,39.0,-100.00,North,0,2.0,5.0,92,-99.99,,,-99.99,,2013-02-11 07:51:00,